Nattehimlen netop nu: Perseiderne topper den 12-13.august med 120 stjerneskud i timen.
  • Ny Tablet venlig Vejr3


  • Vejr3>N more information Vejr3>N


    3 timers nedbørs radar more information rain snow radar


    besøg nogle andre vejrsider:

    Template dokumentation
    og downloads

    And another site


    Select another period ( hide this area )

    enheder periode Custom range Directly to
    metrisk engelsk både
    dagens ugenligt månedlig årligt
    use both date-selectors for a custom range
    forgående dag
    With this date

    WeatherUnderground graphs for this period ( click here )


    dagens sammenfatning af mandag 16 september 2019
    tid Temp. ( °C ) Dew pt. ( °C ) vind ( km/h ) fra vindstød ( km/h ) lufttryk ( hPa ) Humid.( % ) Rainrate ( cm ) solenergi ( W/m2 )
    høj12,5 8,5 22,2 vest ( 393/532 ) 37,0 1012,6 78 - 0
    gennemsnit12,3 8,1 16,1 vest #24/33 27,0 1012,4 76 - 0 #0/33
    lav12,1 7,8 9,7   11,1 1012,2 75 -  
    dagens Tabular details for mandag 16 september 2019
    tid Temp. ( °C ) Dew pt. ( °C ) vind ( km/h ) fra vindstød ( km/h ) lufttryk ( hPa ) Humid.( % ) Rainrate ( cm ) solenergi ( W/m2 )
    00:00 12,1 7,8 16,1 vest 32,2 1012,2 75 - -
    00:05 12,1 7,8 20,9 vsv 35,4 1012,2 75 - -
    00:10 12,2 7,9 22,2 vest 12,9 1012,2 75 - -
    00:15 12,2 7,9 12,9 vest 25,7 1012,2 75 - -
    00:20 12,2 7,9 11,3 vsv 27,4 1012,2 75 - -
    00:25 12,2 7,9 11,3 vest 19,3 1012,2 75 - -
    00:30 12,3 7,9 12,9 vest 22,5 1012,2 75 - -
    00:35 12,3 7,9 12,9 vsv 24,1 1012,3 75 - -
    00:40 12,3 8,0 19,3 vest 19,3 1012,3 75 - -
    00:45 12,4 8,1 19,3 vest 29,0 1012,4 75 - -
    00:50 12,4 8,1 16,1 vest 37,0 1012,5 75 - -
    00:55 12,4 8,1 16,1 vest 27,4 1012,5 75 - -
    01:00 12,4 8,1 19,3 vest 37,0 1012,5 75 - -
    01:05 12,4 8,1 19,3 vest 32,2 1012,4 75 - -
    01:10 12,5 8,2 14,5 vest 27,4 1012,4 75 - -
    01:15 12,5 8,2 19,3 vest 22,5 1012,4 75 - -
    01:20 12,5 8,2 20,4 vsv 11,1 1012,4 75 - -
    01:25 12,4 8,1 14,5 vest 32,2 1012,3 75 - -
    01:30 12,4 8,3 16,1 vest 32,2 1012,4 76 - -
    01:35 12,4 8,1 19,3 vest 32,2 1012,4 75 - -
    01:40 12,4 8,1 19,3 vsv 25,7 1012,4 75 - -
    01:45 12,4 8,3 20,9 vest 33,8 1012,3 76 - -
    01:50 12,4 8,3 14,5 vest 20,9 1012,3 76 - -
    01:55 12,3 8,2 19,3 vest 25,7 1012,3 76 - -
    02:00 12,3 8,2 16,1 vest 37,0 1012,3 76 - -
    02:05 12,3 8,3 16,1 vest 32,2 1012,4 77 - -
    02:10 12,2 8,3 9,7 vest 19,3 1012,5 77 - -
    02:15 12,2 8,5 12,9 vsv 22,5 1012,5 78 - -
    02:20 12,2 8,4 16,1 vest 27,4 1012,5 78 - -
    02:25 12,2 8,4 11,3 vnv 22,5 1012,6 78 - -
    02:30 12,2 8,4 11,3 vest 20,9 1012,6 78 - -
    02:35 12,2 8,4 14,5 vsv 27,4 1012,6 78 - -
    02:40 12,2 8,4 16,1 vsv 35,4 1012,6 78 - -
    dagens sammenfatning af mandag 16 september 2019
    tid Temp. ( °C ) Dew pt. ( °C ) vind ( km/h ) fra vindstød ( km/h ) lufttryk ( hPa ) Humid.( % ) Rainrate ( cm ) solenergi ( W/m2 )
    høj12,5 8,5 22,2 vest ( 393/532 ) 37,0 1012,6 78 - 0
    gennemsnit12,3 8,1 16,1 vest #24/33 27,0 1012,4 76 - 0 #0/33
    lav12,1 7,8 9,7   11,1 1012,2 75 -  
    dagens Tabular details for mandag 16 september 2019
    tid Temp. ( °C ) Dew pt. ( °C ) vind ( km/h ) fra vindstød ( km/h ) lufttryk ( hPa ) Humid.( % ) Rainrate ( cm ) solenergi ( W/m2 )
    00:00 12,1 7,8 16,1 vest 32,2 1012,2 75 - -
    00:05 12,1 7,8 20,9 vsv 35,4 1012,2 75 - -
    00:10 12,2 7,9 22,2 vest 12,9 1012,2 75 - -
    00:15 12,2 7,9 12,9 vest 25,7 1012,2 75 - -
    00:20 12,2 7,9 11,3 vsv 27,4 1012,2 75 - -
    00:25 12,2 7,9 11,3 vest 19,3 1012,2 75 - -
    00:30 12,3 7,9 12,9 vest 22,5 1012,2 75 - -
    00:35 12,3 7,9 12,9 vsv 24,1 1012,3 75 - -
    00:40 12,3 8,0 19,3 vest 19,3 1012,3 75 - -
    00:45 12,4 8,1 19,3 vest 29,0 1012,4 75 - -
    00:50 12,4 8,1 16,1 vest 37,0 1012,5 75 - -
    00:55 12,4 8,1 16,1 vest 27,4 1012,5 75 - -
    01:00 12,4 8,1 19,3 vest 37,0 1012,5 75 - -
    01:05 12,4 8,1 19,3 vest 32,2 1012,4 75 - -
    01:10 12,5 8,2 14,5 vest 27,4 1012,4 75 - -
    01:15 12,5 8,2 19,3 vest 22,5 1012,4 75 - -
    01:20 12,5 8,2 20,4 vsv 11,1 1012,4 75 - -
    01:25 12,4 8,1 14,5 vest 32,2 1012,3 75 - -
    01:30 12,4 8,3 16,1 vest 32,2 1012,4 76 - -
    01:35 12,4 8,1 19,3 vest 32,2 1012,4 75 - -
    01:40 12,4 8,1 19,3 vsv 25,7 1012,4 75 - -
    01:45 12,4 8,3 20,9 vest 33,8 1012,3 76 - -
    01:50 12,4 8,3 14,5 vest 20,9 1012,3 76 - -
    01:55 12,3 8,2 19,3 vest 25,7 1012,3 76 - -
    02:00 12,3 8,2 16,1 vest 37,0 1012,3 76 - -
    02:05 12,3 8,3 16,1 vest 32,2 1012,4 77 - -
    02:10 12,2 8,3 9,7 vest 19,3 1012,5 77 - -
    02:15 12,2 8,5 12,9 vsv 22,5 1012,5 78 - -
    02:20 12,2 8,4 16,1 vest 27,4 1012,5 78 - -
    02:25 12,2 8,4 11,3 vnv 22,5 1012,6 78 - -
    02:30 12,2 8,4 11,3 vest 20,9 1012,6 78 - -
    02:35 12,2 8,4 14,5 vsv 27,4 1012,6 78 - -
    02:40 12,2 8,4 16,1 vsv 35,4 1012,6 78 - -

    Download your copy of this data-set  here

    Our weather-data as stored at Weather Underground. script udviklet af Jim McMurry. tilpasset til dette template Leuven-Template.eu

    du finder også vores vejrinformationer på:

    European Weather Network

    Weather Underground

    AWEKAS

    WeatherlinkIP

    Citizen Weather Observer Program (CWOP)

    udstyr som vi anvender:

    vejrstation
    Davis VP2+

    vejrprogram
    Weather Display

    vejrserver
    Dell E6400

    hjemmeside host
    Webhosting.dk

    Davis VP2+

    Weather Display

    Dell E6400

    Webhosting.dk